Regional Weather Roundup
Issued by NWS

Home | Current Version | Previous Version | Text Only | Print | Product List | Glossary On
Versions: 1 2 3 4 5 6 7 8 9 10 11 12 13 14 15 16 17 18 19 20 21 22 23 24 25 26 27 28 29 30 31 32 33 34 35 36 37 38 39 40 41 42 43 44 45 46 47 48 49 50
000
ASUS44 KBMX 220510
RWRAL

ALABAMA REGIONAL WEATHER ROUNDUP
NATIONAL WEATHER SERVICE BIRMINGHAM AL
1200 AM CDT TUE AUG 22 2017

NOTE: "FAIR" INDICATES FEW OR NO CLOUDS BELOW 12,000 FEET
WITH NO SIGNIFICANT WEATHER AND/OR OBSTRUCTIONS TO VISIBILITY.

THE REMARK "TC" DENOTES TEMPERATURE IN DEGREES CELSIUS.

ALZ001>011-014-016>018-020-220600-
NORTH ALABAMA

CITY           SKY/WX    TMP DP  RH WIND       PRES   REMARKS
MUSCLE SHOALS  CLEAR     75  71  87 CALM      30.13F
HUNTSVILLE     CLEAR     76  75  97 SE3       30.13F
DECATUR        CLEAR     70  70 100 CALM      30.13F FOG
HALEYVILLE     FAIR      73  73 100 CALM      30.17F
GADSDEN        CLEAR     73  73 100 CALM      30.16S
$$

ALZ012-013-022-023-030>036-040>044-220600-
WEST CENTRAL ALABAMA

CITY           SKY/WX    TMP DP  RH WIND       PRES   REMARKS
TUSCALOOSA     CLEAR     77  77 100 CALM      30.12F
DEMOPOLIS        N/A     76  72  88 CALM      30.12S
$$

ALZ015-024>026-033>036-041>044-220600-
CENTRAL ALABAMA

CITY           SKY/WX    TMP DP  RH WIND       PRES   REMARKS
BIRMINGHAM     CLEAR     77  73  87 N3        30.17S
MONTGOMERY     CLOUDY    79  72  79 CALM      30.14S
SHELBY CO ARPT CLEAR     77  75  93 CALM      30.15S
MAXWELL AFB    CLOUDY    77  77 100 CALM      30.13S
GREENVILLE     FAIR      75  72  90 CALM      30.13F
SELMA          FAIR      75  73  94 SE3       30.13S
PRATTVILLE     FAIR      74  74 100 CALM      30.14R
BESSEMER       FAIR      78  73  84 CALM      30.15F
TALLADEGA      FAIR     N/A N/A N/A MISG      30.16S
PELL CITY      CLEAR     73  73 100 CALM      30.16S FOG
MARION         FAIR      76  76  98 CALM      30.12S
SYLACAUGA      FAIR      74  74 100 CALM      30.16S
$$

ALZ019-021-028-029-037-038-045>048-220600-
EAST CENTRAL ALABAMA

CITY           SKY/WX    TMP DP  RH WIND       PRES   REMARKS
ANNISTON       CLEAR     76  73  91 CALM      30.16S
ALEXANDER CITY PTCLDY    74  73  95 CALM      30.17S
AUBURN         CLEAR     77  73  87 CALM      30.18S
$$

ALZ051>064-220600-
SOUTHWEST ALABAMA

CITY           SKY/WX    TMP DP  RH WIND       PRES   REMARKS
MOBILE         MOCLDY    76  73  91 CALM      30.12F
BROOKLEY FIELD CLOUDY    78  76  93 CALM      30.13F
EVERGREEN      CLOUDY    74  73  97 CALM      30.14S FOG
$$

ALZ049-050-065>069-220600-
SOUTHEAST ALABAMA

CITY           SKY/WX    TMP DP  RH WIND       PRES   REMARKS
DOTHAN         PTCLDY    75  75 100 CALM      30.17F
OZARK          CLEAR     74  72  94 CALM      30.14S
TROY           PTCLDY    74  74 100 CALM      30.15F
EUFAULA        MOCLDY    77  76  96 CALM      30.14S
$$



USA.gov is the U.S. government's official web portal to all federal, state and local government web resources and services.